Home   Weather   Merida   Past weeks

Flag for Mexico Past Weather in Merida, Yucatán, Mexico — Yesterday and Last 2 Weeks

Now
77 °F

Partly cloudy.


Feels Like: 78 °F
Forecast: 76 / 89 °F
Wind: 6 mph from Southeast

Location: Aerop. Internacional Merida - Yuc

Current Time: Sep 24, 2016 at 10:49:58 PM

Latest Report: Sep 24, 2016 at 9:48 PM


Visibility: 7 mi

Pressure: 30.03 "Hg

Humidity: 94%

Dew Point: 75 °F

Location of MeridaLocation

Past Weather in Merida — Graph

°F

Merida Temperature Yesterday

Maximum temperature yesterday: 93 °F (at 3:46 PM)
Minimum temperature yesterday: 73 °F (at 3:49 AM)
Average temperature yesterday: 80 °F

High & Low Weather Summary for the Past Weeks

 TemperatureHumidityPressure
High95 °F (Sep 13, 1:47 PM)100% (Sep 21, 6:47 AM)30.04 "Hg (Sep 21, 6:47 AM)
Low72 °F (Sep 22, 7:17 PM)49% (Sep 18, 3:45 PM)29.80 "Hg (Sep 22, 3:46 PM)
Average81 °F82%29.95 "Hg
* Reported Sep 9 8:30 PM — Sep 24 8:52 PM, Merida, Weather by CustomWeather, © 2016

Note: Actual official high and low records may vary slightly from our data, if they occured in-between our weather recording intervals... More about our weather records

Advertising

Merida Weather History for the Previous 24 Hours

Scroll right to see more
 ConditionsComfort  
Time TempWeatherWind HumidityBarometerVisibility
8:52 PM
Sat, Sep 24
77 °FMostly cloudy.7 mph94%29.96 "Hg6 mi
8:23 PM75 °FMostly cloudy.No wind94%29.97 "Hg6 mi
8:14 PM77 °FLight rain. Overcast.8 mph94%29.97 "Hg4 mi
7:52 PM79 °FLight rain. Mostly cloudy.12 mph84%29.97 "Hg6 mi
6:54 PM81 °FOvercast.9 mph79%29.95 "Hg7 mi
5:51 PM82 °FCloudy.12 mph84%29.90 "Hg7 mi
4:55 PM82 °FBroken clouds.5 mph79%29.90 "Hg7 mi
3:50 PM88 °FPartly sunny.8 mph62%29.88 "Hg7 mi
2:49 PM90 °FBroken clouds.5 mph63%29.92 "Hg7 mi
1:50 PM88 °FBroken clouds.9 mph66%29.94 "Hg7 mi
12:47 PM88 °FPartly sunny.9 mph70%29.97 "Hg7 mi
11:46 AM86 °FBroken clouds.12 mph75%29.98 "Hg7 mi
10:46 AM84 °FBroken clouds.9 mph79%30.00 "Hg7 mi
10:21 AM84 °FPartly sunny.9 mph84%30.00 "Hg7 mi
9:46 AM82 °FBroken clouds.8 mph84%29.99 "Hg7 mi
8:46 AM81 °FBroken clouds.7 mph84%30.00 "Hg7 mi
7:49 AM79 °FBroken clouds.6 mph89%30.00 "Hg7 mi
6:47 AM75 °FPartly cloudy.6 mph94%29.98 "Hg6 mi
5:53 AM75 °FPassing clouds.No wind94%29.97 "Hg7 mi
4:53 AM75 °FPassing clouds.No wind94%29.95 "Hg7 mi
3:50 AM77 °FPassing clouds.7 mph94%29.96 "Hg7 mi
2:49 AM77 °FPassing clouds.5 mph89%29.95 "Hg7 mi
1:51 AM77 °FPartly cloudy.6 mph89%29.96 "Hg7 mi
12:50 AM75 °FPassing clouds.No wind94%30.00 "Hg7 mi
11:53 PM
Fri, Sep 23
75 °FPassing clouds.No wind94%29.99 "Hg7 mi
10:51 PM75 °FPassing clouds.No wind94%29.99 "Hg7 mi
Weather by CustomWeather, © 2016

See weather overviewHow to use our weather pages